Wahoo, NE

5:53 AM CST on January 20, 2018 (GMT -0600)
Wahoo Municipal

Weather History for KAHQ - July, 2014

Change the Weather History Date:

Friday, July 11, 2014

  Actual Average Record
Temperature  
Mean Temperature 77 °F -  
Max Temperature 86 °F 89 °F 102 °F (1966)
Min Temperature 68 °F 66 °F 56 °F (1975)
Cooling Degree Days 12    
Growing Degree Days 27 (Base 50)    
Moisture  
Dew Point 69 °F    
Average Humidity 79    
Maximum Humidity 89    
Minimum Humidity 60    
Precipitation  
Precipitation 0.00 in - - ()
Sea Level Pressure  
Sea Level Pressure 29.98 in    
Wind  
Wind Speed 8 mph (SE)    
Max Wind Speed 14 mph    
Max Gust Speed 18 mph    
Visibility 10 miles    
Events      
Averages and records for this station are not official NWS values.
T = Trace of Precipitation, MM = Missing Value Source: NWS Daily Summary

Daily Weather History Graph

Daily Weather History Graph

Search for Another Location

Airport or City:

Trip Planner

Search our weather history database for the weather conditions in past years. The results will help you decide how hot, cold, wet, or windy it might be!

Date:

Astronomy

Jul. 11, 2014 Rise Set
Actual Time 6:03 AM CDT 9:00 PM CDT
Civil Twilight 5:30 AM CDT 9:32 PM CDT
Nautical Twilight 4:48 AM CDT 10:14 PM CDT
Astronomical Twilight 3:59 AM CDT 11:03 PM CDT
Moon 8:10 PM CDT (7/11) 5:17 AM CDT (7/11)
Length of Visible Light 16h 02m
Length of Day
14h 56m
Waxing Gibbous, 99% of the Moon is Illuminated
Jul 11
Waxing Gibbous
Jul 12
Full
Jul 18
Last Quarter
Jul 26
New
Aug 3
First Quarter

Hourly Weather History & Observations

Time (CDT) Temp. Heat Index Dew Point Humidity Pressure Visibility Wind Dir Wind Speed Gust Speed Precip Events Conditions
12:15 AM 72.5 °F - 65.5 °F 79% 30.00 in 10.0 mi SSE 9.2 mph - N/A   Clear
12:35 AM 71.8 °F - 65.7 °F 81% 30.00 in 10.0 mi SSE 10.4 mph - N/A   Clear
12:55 AM 71.6 °F - 65.5 °F 81% 29.99 in 10.0 mi SSE 9.2 mph - N/A   Clear
1:15 AM 71.6 °F - 65.5 °F 81% 29.98 in 10.0 mi SSE 11.5 mph - N/A   Clear
1:35 AM 71.1 °F - 65.5 °F 82% 29.98 in 10.0 mi SSE 12.7 mph - N/A   Clear
1:55 AM 70.9 °F - 65.5 °F 83% 29.97 in 10.0 mi SSE 11.5 mph - N/A   Clear
2:15 AM 70.7 °F - 65.5 °F 83% 29.98 in 10.0 mi SSE 11.5 mph - N/A   Clear
2:35 AM 70.7 °F - 65.5 °F 83% 29.98 in 10.0 mi SSE 10.4 mph - N/A   Clear
2:55 AM 70.7 °F - 65.5 °F 83% 29.97 in 10.0 mi SSE 10.4 mph - N/A   Clear
3:15 AM 70.9 °F - 65.5 °F 83% 29.97 in 10.0 mi SSE 9.2 mph - N/A   Clear
3:35 AM 70.9 °F - 65.5 °F 83% 29.98 in 10.0 mi SSE 8.1 mph - N/A   Clear
3:55 AM 70.7 °F - 65.3 °F 83% 29.98 in 10.0 mi SSE 6.9 mph - N/A   Clear
4:15 AM 70.7 °F - 65.3 °F 83% 29.99 in 10.0 mi SE 4.6 mph - N/A   Mostly Cloudy
4:35 AM 70.7 °F - 65.3 °F 83% 29.99 in 10.0 mi SE 4.6 mph - N/A   Overcast
4:55 AM 70.0 °F - 65.3 °F 85% 29.97 in 10.0 mi SE 6.9 mph - N/A   Mostly Cloudy
5:15 AM 69.8 °F - 64.8 °F 84% 29.96 in 10.0 mi SE 8.1 mph - N/A   Mostly Cloudy
5:35 AM 69.4 °F - 64.8 °F 85% 29.95 in 10.0 mi SE 9.2 mph - N/A   Overcast
5:55 AM 69.8 °F - 64.8 °F 84% 29.97 in 10.0 mi SSE 3.5 mph - N/A   Overcast
6:15 AM 69.1 °F - 64.6 °F 86% 30.00 in 10.0 mi Calm Calm - N/A   Scattered Clouds
6:35 AM 68.9 °F - 64.8 °F 87% 30.00 in 10.0 mi Calm Calm - N/A   Clear
6:55 AM 68.9 °F - 65.3 °F 88% 30.00 in 10.0 mi Calm Calm - N/A   Mostly Cloudy
7:15 AM 68.5 °F - 65.3 °F 89% 29.99 in 7.0 mi NE 3.5 mph - N/A   Scattered Clouds
7:35 AM 68.5 °F - 65.3 °F 89% 30.00 in 7.0 mi Calm Calm - N/A   Clear
7:55 AM 69.1 °F - 65.7 °F 89% 30.00 in 7.0 mi North 3.5 mph - N/A   Mostly Cloudy
8:15 AM 69.8 °F - 65.8 °F 87% 30.00 in 10.0 mi East 5.8 mph - N/A   Mostly Cloudy
8:35 AM 70.2 °F - 65.8 °F 86% 30.00 in 10.0 mi ESE 8.1 mph - N/A   Clear
8:55 AM 70.9 °F - 65.8 °F 84% 30.00 in 10.0 mi ESE 8.1 mph - N/A   Clear
9:15 AM 71.6 °F - 66.0 °F 82% 29.99 in 10.0 mi ESE 13.8 mph - N/A   Clear
9:35 AM 72.1 °F - 65.8 °F 80% 29.99 in 10.0 mi SE 12.7 mph - N/A   Clear
9:55 AM 72.5 °F - 66.4 °F 81% 29.99 in 10.0 mi SE 8.1 mph 18.4 mph N/A   Clear
10:15 AM 73.2 °F - 66.6 °F 80% 29.97 in 10.0 mi SSE 12.7 mph - N/A   Scattered Clouds
10:35 AM 73.4 °F - 66.6 °F 79% 29.97 in 10.0 mi SSE 12.7 mph 17.3 mph N/A   Scattered Clouds
10:55 AM 74.3 °F - 67.1 °F 78% 29.98 in 10.0 mi SSE 10.4 mph - N/A   Mostly Cloudy
11:15 AM 74.7 °F - 67.8 °F 79% 29.97 in 10.0 mi SSE 9.2 mph - N/A   Overcast
11:35 AM 76.1 °F - 68.7 °F 78% 29.97 in 10.0 mi South 11.5 mph 16.1 mph N/A   Overcast
11:55 AM 77.0 °F - 68.2 °F 74% 29.99 in 10.0 mi South 9.2 mph - N/A   Mostly Cloudy
12:15 PM 79.3 °F - 69.8 °F 72% 29.99 in 10.0 mi South 4.6 mph - N/A   Overcast
12:35 PM 81.3 °F 85.0 °F 70.2 °F 69% 29.98 in 10.0 mi North - - N/A   Mostly Cloudy
12:55 PM 80.1 °F 82.9 °F 69.1 °F 69% 29.97 in 10.0 mi SSE 9.2 mph - N/A   Scattered Clouds
1:15 PM 79.7 °F - 69.3 °F 70% 29.97 in 10.0 mi North - - N/A   Clear
1:35 PM 79.9 °F - 69.3 °F 70% 29.96 in 10.0 mi North - - N/A   Clear
1:55 PM 80.2 °F 83.5 °F 70.0 °F 71% 29.96 in 10.0 mi North - - N/A   Clear
2:15 PM 80.8 °F 84.4 °F 70.5 °F 71% 29.98 in 10.0 mi SSE 6.9 mph - N/A   Clear
2:35 PM 81.0 °F 84.7 °F 70.7 °F 71% 29.97 in 10.0 mi SSE 8.1 mph - N/A   Clear
2:55 PM 81.3 °F 85.2 °F 70.9 °F 70% 29.97 in 10.0 mi SE 8.1 mph - N/A   Clear
3:35 PM 83.1 °F 88.1 °F 71.4 °F 68% 29.98 in 10.0 mi SSW 4.6 mph - N/A   Clear
3:55 PM 84.4 °F 90.3 °F 72.1 °F 67% 29.97 in 10.0 mi South 6.9 mph - N/A   Clear
4:15 PM 84.0 °F 89.3 °F 71.4 °F 66% 29.98 in 10.0 mi South 3.5 mph - N/A   Clear
4:35 PM 83.8 °F 88.9 °F 71.6 °F 66% 29.97 in 10.0 mi SE 4.6 mph - N/A   Clear
4:55 PM 84.0 °F 89.9 °F 72.3 °F 68% 29.97 in 10.0 mi Calm Calm - N/A   Clear
5:15 PM 84.4 °F 90.3 °F 72.5 °F 67% 29.97 in 10.0 mi Calm Calm - N/A   Clear
5:35 PM 84.6 °F 91.0 °F 72.9 °F 68% 29.97 in 10.0 mi Calm Calm - N/A   Clear
5:55 PM 86.5 °F 92.1 °F 71.2 °F 60% 29.98 in 10.0 mi Calm Calm - N/A   Clear
6:15 PM 86.4 °F 91.8 °F 71.1 °F 60% 29.97 in 10.0 mi Calm Calm - N/A   Clear
6:35 PM 86.0 °F 93.0 °F 72.9 °F 65% 29.97 in 10.0 mi Calm Calm - N/A   Clear
6:55 PM 82.9 °F 88.8 °F 73.2 °F 72% 29.96 in 10.0 mi NE 6.9 mph - N/A   Clear
7:15 PM 82.6 °F 88.6 °F 73.6 °F 74% 29.96 in 10.0 mi ENE 6.9 mph - N/A   Clear
7:35 PM 82.4 °F 88.2 °F 73.4 °F 74% 29.96 in 10.0 mi ENE 5.8 mph - N/A   Clear
8:15 PM 81.3 °F 86.3 °F 73.0 °F 76% 29.97 in 10.0 mi ENE 10.4 mph - N/A   Clear
8:35 PM 79.7 °F - 72.5 °F 79% 29.97 in 10.0 mi ENE 6.9 mph - N/A   Clear
8:55 PM 78.8 °F - 72.5 °F 81% 29.97 in 10.0 mi ENE 8.1 mph - N/A   Clear
9:15 PM 78.1 °F - 72.1 °F 82% 29.98 in 10.0 mi ENE 6.9 mph - N/A   Clear
9:35 PM 77.9 °F - 72.1 °F 82% 29.98 in 10.0 mi East 4.6 mph - N/A   Clear
9:55 PM 77.2 °F - 72.0 °F 84% 29.98 in 10.0 mi East 4.6 mph - N/A   Clear
10:15 PM 76.3 °F - 71.8 °F 86% 29.99 in 10.0 mi East 3.5 mph - N/A   Clear
10:35 PM 76.1 °F - 72.0 °F 87% 29.98 in 10.0 mi East 4.6 mph - N/A   Clear
10:55 PM 76.1 °F - 72.1 °F 87% 29.98 in 10.0 mi Calm Calm - N/A   Clear
11:15 PM 76.1 °F - 72.1 °F 87% 29.98 in 10.0 mi Calm Calm - N/A   Clear
11:35 PM 75.9 °F - 72.1 °F 88% 29.98 in 10.0 mi NE 4.6 mph - N/A   Clear
11:55 PM 75.4 °F - 71.8 °F 89% 29.98 in 7.0 mi North 3.5 mph - N/A   Clear